ZHANGZHENG-1 (CSES) (43194 NORAD) Tracking and Keplerian Element Data

This shows tracking and keplerian element data for the satellite.

Feedback or suggestion? Click here.




ElementValue
Catalog43194
NameZHANGZHENG-1 (CSES)
Epoch Orbit20261
Epoch Day270.23346664
Epoch Year2021
RAAN36.9458
Inclination97.492
Eccentricity0.0009438
Argument of Perigee280.5171
Mean Anonmoly172.5783
Mean Motion15.20767025
Decay Rate2.991E-05
L11 43194U 18015C 21270.23346664 .00002991 00000-0 13887-3 0 9993
L22 43194 97.4920 36.9458 0009438 280.5171 172.5783 15.20767025202616

Live tracking and technical data element details for ZHANGZHENG-1 (CSES) (NORAD 43194). ZHANGZHENG-1 (CSES) can be tracked NOW for your location showing map with azimuth and elevation plus other details from your city location.

Track the satellite on the map from your city or location and see movement details for azimuth, elevation, latitude, longitude, range, height, and movement on the map or in text.







IsCatalogInMostPopularTable: catalog: 43194, numindb: 602
Update: records affected: 1



GetName: 43194 ZHANGZHENG-1 (CSES)

Hit Count: updated at: Tue, 28 Sep 2021 16:28:15 GMT